{"data":{"norad_id":66803,"epoch":"2026-05-25T02:38:53.504736Z","epoch_age_seconds":69514,"freshness":"FRESH","line1":"1 66803U 25278N   26145.11034149  .00012398  00000+0  45920-3 0  9993","line2":"2 66803  43.0042  43.0463 0001286 247.8079 112.2636 15.27585819 26899","mean_motion":15.27585819,"eccentricity":0.0001286,"inclination_deg":43.0042,"raan_deg":43.0463,"arg_perigee_deg":247.8079,"mean_anomaly_deg":112.2636,"bstar":0.0004592,"rev_number":2689,"period_min":94.266389625341,"perigee_km":482.14932562438,"apogee_km":483.9140182068,"semimajor_km":6861.1686719156,"source":"CELESTRAK","updated_at":"2026-05-25T13:38:21.329093Z"}}